Weather History for KCCR - March, 2014

Change the Weather History Date:

Wednesday, March 12, 2014

  Actual Average Record
Temperature  
Mean Temperature 61 °F 55 °F  
Max Temperature 74 °F 66 °F 80 °F (2007)
Min Temperature 48 °F 45 °F 37 °F (2012)
Degree Days  
Heating Degree Days 4    
Month to date heating degree days 84  
Since 1 July heating degree days 1830  
Cooling Degree Days 0    
Month to date cooling degree days 0  
Year to date cooling degree days 0  
Growing Degree Days 12 (Base 50)    
Moisture  
Dew Point 32 °F    
Average Humidity 40    
Maximum Humidity 59    
Minimum Humidity 20    
Precipitation  
Precipitation 0.00 in - 0.39 in (2006)
Month to date precipitation 0.49  
Year to date precipitation 5.08  
Since 1 July precipitation 7.56  
Sea Level Pressure  
Sea Level Pressure 30.02 in    
Wind  
Wind Speed 8 mph (NE)    
Max Wind Speed 21 mph    
Max Gust Speed 30 mph    
Visibility 10 miles    
Events      
T = Trace of Precipitation, MM = Missing Value Source: NWS Daily Summary

Daily Weather History Graph

Daily Weather History Graph

Search for Another Location

Airport or City:

Trip Planner

Search our weather history database for the weather conditions in past years. The results will help you decide how hot, cold, wet, or windy it might be!

Date:

Astronomy

Mar. 12, 2014 Rise Set
Actual Time 7:23 AM PDT 7:12 PM PDT
Civil Twilight 6:57 AM PDT 7:38 PM PDT
Nautical Twilight 6:27 AM PDT 8:09 PM PDT
Astronomical Twilight 5:56 AM PDT 8:40 PM PDT
Moon 3:50 PM PDT (3/12) 4:55 AM PDT (3/12)
Length of Visible Light 12h 41m
Length of Day
11h 48m
Waxing Gibbous, 86% of the Moon is Illuminated
Mar 12
Waxing Gibbous
Mar 16
Full
Mar 23
Last Quarter
Mar 30
New
Apr 7
First Quarter

Hourly Weather History & Observations

Time (PDT) Temp. Dew Point Humidity Pressure Visibility Wind Dir Wind Speed Gust Speed Precip Events Conditions
12:53 AM 55.9 °F 28.0 °F 34% 30.03 in 10.0 mi NNE 12.7 mph 19.6 mph N/A   Clear
1:53 AM 55.0 °F 27.0 °F 34% 30.01 in 10.0 mi NNE 9.2 mph 19.6 mph N/A   Clear
2:53 AM 55.9 °F 27.0 °F 33% 30.01 in 10.0 mi NNE 12.7 mph 23.0 mph N/A   Clear
3:53 AM 55.0 °F 27.0 °F 34% 30.00 in 10.0 mi NE 13.8 mph 24.2 mph N/A   Clear
4:53 AM 55.0 °F 28.0 °F 35% 30.00 in 10.0 mi NNE 13.8 mph 28.8 mph N/A   Clear
5:53 AM 53.1 °F 28.9 °F 40% 30.03 in 10.0 mi NE 10.4 mph 24.2 mph N/A   Clear
6:53 AM 51.1 °F 30.9 °F 46% 30.05 in 10.0 mi East 8.1 mph - N/A   Clear
7:53 AM 50.0 °F 32.0 °F 50% 30.07 in 10.0 mi Calm Calm - N/A   Clear
8:53 AM 54.0 °F 32.0 °F 43% 30.09 in 10.0 mi Variable 3.5 mph - N/A   Clear
9:53 AM 57.9 °F 33.1 °F 39% 30.10 in 10.0 mi NNE 8.1 mph 18.4 mph N/A   Clear
10:53 AM 61.0 °F 33.1 °F 35% 30.10 in 10.0 mi NE 15.0 mph 20.7 mph N/A   Clear
11:53 AM 66.0 °F 33.1 °F 29% 30.08 in 10.0 mi NE 12.7 mph 26.5 mph N/A   Clear
12:53 PM 68.0 °F 32.0 °F 26% 30.06 in 10.0 mi NE 16.1 mph 29.9 mph N/A   Clear
1:53 PM 71.1 °F 33.1 °F 25% 30.05 in 10.0 mi NNE 11.5 mph 24.2 mph N/A   Clear
2:53 PM 73.0 °F 30.9 °F 21% 30.02 in 10.0 mi North 12.7 mph 20.7 mph N/A   Clear
3:53 PM 73.0 °F 33.1 °F 23% 30.00 in 10.0 mi North 13.8 mph 19.6 mph N/A   Clear
4:53 PM 73.9 °F 35.1 °F 24% 29.98 in 10.0 mi North 11.5 mph 19.6 mph N/A   Clear
5:53 PM 73.0 °F 34.0 °F 24% 29.97 in 10.0 mi NNE 9.2 mph - N/A   Clear
6:53 PM 68.0 °F 35.1 °F 30% 29.97 in 10.0 mi NNW 3.5 mph - N/A   Clear
7:53 PM 63.0 °F 36.0 °F 37% 29.97 in 10.0 mi ESE 3.5 mph - N/A   Clear
8:53 PM 61.0 °F 36.0 °F 39% 29.99 in 10.0 mi Calm Calm - N/A   Clear
9:53 PM 55.0 °F 37.0 °F 51% 30.00 in 10.0 mi SSE 3.5 mph - N/A   Clear
10:53 PM 54.0 °F 37.0 °F 53% 30.01 in 10.0 mi ESE 3.5 mph - N/A   Clear
11:53 PM 52.0 °F 37.0 °F 57% 30.00 in 10.0 mi Calm Calm - N/A   Clear